Location: Cactus School
(34.5700°N, 118.0931°W)
Time: 04:04:41
(UTC-08:00)

N. Korean satellite - Visible Passes

Search period start: 21 November 2017 00:00
Search period end: 01 December 2017 00:00
Orbit: 460 x 514 km, 97.2° (Epoch: 20 November)

Date Brightness Start Highest point End Pass type
(mag) Time Alt. Az. Time Alt. Az. Time Alt. Az.
21 Nov 10.0 05:39:28 10° ENE 05:41:27 14° E 05:43:25 10° SE visible
21 Nov 6.5 17:44:07 10° SSE 17:47:31 54° ENE 17:51:00 10° N visible
22 Nov 7.5 17:21:15 10° SE 17:24:09 25° ENE 17:27:07 10° NNE visible
22 Nov 9.8 18:55:47 10° SW 18:57:40 14° W 18:59:34 10° WNW visible
23 Nov 8.6 18:31:00 10° SSW 18:34:04 28° W 18:37:11 10° NW visible
24 Nov 9.2 06:01:23 10° NE 06:04:38 27° E 06:07:51 10° SSE visible
24 Nov 6.9 18:07:03 10° S 18:10:31 65° W 18:14:04 10° NNW visible
25 Nov 10.0 05:39:03 10° ENE 05:41:01 14° E 05:42:59 10° SE visible
25 Nov 6.6 17:43:38 10° SSE 17:47:03 54° ENE 17:50:34 10° N visible
26 Nov 7.6 17:20:44 10° SE 17:23:41 25° ENE 17:26:41 10° NNE visible
26 Nov 9.8 18:55:14 10° SW 18:57:11 14° W 18:59:11 10° WNW visible
27 Nov 8.6 18:30:28 10° SSW 18:33:34 29° W 18:36:44 10° NW visible
28 Nov 9.2 06:00:55 10° NE 06:04:09 27° E 06:07:23 10° SSE visible
28 Nov 6.9 18:06:30 10° S 18:10:00 65° W 18:13:37 10° NNW visible
29 Nov 10.0 05:38:35 10° ENE 05:40:32 14° E 05:42:29 10° SE visible
29 Nov 6.6 17:43:04 10° SSE 17:46:33 54° ENE 17:50:05 10° N visible
30 Nov 7.6 17:20:10 10° SE 17:23:09 25° ENE 17:26:11 10° NNE visible
30 Nov 9.8 18:54:37 10° SW 18:56:39 14° W 18:58:43 10° WNW visible
